Weather Roundup
Issued by NWS

Home | Current Version | Previous Version | Text Only | Print | Product List | Glossary On
Versions: 1 2 3 4 5 6 7 8 9 10 11 12 13 14 15 16 17 18 19 20 21 22 23 24 25 26 27 28 29 30 31 32 33 34 35 36 37 38 39 40 41 42 43 44 45 46 47 48 49 50
917
NZUS93 KARX 270610
HRRWXR

CURRENT HOURLY OBSERVATIONS ACROSS
MUCH OF THE UPPER MISSISSIPPI VALLEY
NATIONAL WEATHER SERVICE LA CROSSE WI
100 AM CDT THU APR 27 2017


...SOUTHEAST MINNESOTA...


CITY           SKY/WX    TMP DP  RH WIND       PRES   REMARKS
ROCHESTER      CLOUDY    36  34  92 NW12      29.53R WCI  28
ROCHESTER/MAYO CLOUDY    36  36 100 NW9       29.54R WCI  29
WINONA         CLOUDY    37  37 100 NW8       29.52S WCI  31
AUSTIN         CLOUDY    36  34  93 NW10      29.54S FOG     WCI  28
ALBERT LEA     CLOUDY    34  32  93 NW8       29.56R WCI  27
DODGE CENTER   CLOUDY    36  34  93 NW9       29.53R WCI  29
PRESTON        CLOUDY    36  33  90 N9        29.53R WCI  29
OWATONNA       DRIZZLE   36  34  93 NW12      29.56R WCI  27
FARIBAULT      CLOUDY    36  34  93 W8        29.56F FOG     WCI  29
$$

...ELSEWHERE IN MINNESOTA...


CITY           SKY/WX    TMP DP  RH WIND       PRES   REMARKS
MINNEAPOLIS    CLOUDY    36  30  79 N12       29.56F WCI  28
INTNL FALLS    CLOUDY    23  15  71 NE10G20   29.69R WCI  12
DULUTH         CLOUDY    25  22  88 N9        29.58F WCI  15
RED WING       CLOUDY    37  30  75 N6        29.53F WCI  33
REDWOOD FALLS  CLOUDY    32  28  85 NW10      29.61F WCI  24
MANKATO        CLOUDY    34  31  88 NW12      29.59F WCI  25
WORTHINGTON    CLOUDY    29  26  89 NW15      29.63R WCI  18
FAIRMONT       CLOUDY    31  30  96 NW17      29.61S WCI  19
$$

...SOUTHWEST WISCONSIN...


CITY           SKY/WX    TMP DP  RH WIND       PRES   REMARKS
LA CROSSE      CLOUDY    42  38  85 N14       29.50F
PRAIRIE DU CHI RAIN      41  38  87 NW8       29.50S
BOSCOBEL       LGT RAIN  44  39  82 N8        29.49F
LONE ROCK      LGT RAIN  44  40  85 NW9       29.46F
PLATTEVILLE    CLOUDY    43  43 100 NW9       29.47S
FORT MC COY    CLOUDY    40  37  92 NW6       29.50S
CAMP DOUGLAS   CLOUDY    41  39  93 NW8       29.47S
MAUSTON-NEW LI CLOUDY    41  39  93 NW8       29.47S
VIROQUA        CLOUDY    39  39  99 NW8       29.48F WCI  34
WIS DELLS      DRIZZLE   42  41  95 NW7       29.45F
$$

...ELSEWHERE IN WISCONSIN...


CITY           SKY/WX    TMP DP  RH WIND       PRES   REMARKS
MILWAUKEE      LGT RAIN  57  56  96 CALM      29.41F FOG
MADISON        LGT RAIN  47  45  93 N7        29.43F FOG
GREEN BAY      LGT RAIN  51  50  96 W5        29.43F
EAU CLAIRE     CLOUDY    36  31  82 N10       29.52S WCI  28
BLACK RVR FLS  CLOUDY    39  39  97 NW6       29.49F
MEDFORD        CLOUDY    34  33  97 N7        29.47S FOG     WCI  28
WAUSAU         CLOUDY    38  35  89 NW9       29.45F WCI  31
WIS RAPIDS     CLOUDY    42  39  89 NW8       29.47F
MARSHFIELD     CLOUDY    39  35  86 N8        29.46S WCI  33
RICE LAKE      CLOUDY    33  29  85 N9        29.56S WCI  25
$$

...NORTHEAST IOWA...


CITY           SKY/WX    TMP DP  RH WIND       PRES   REMARKS
WATERLOO       CLOUDY    40  32  73 NW10G21   29.54R WCI  33
DUBUQUE        LGT RAIN  41  39  93 NW13      29.47S
DECORAH        CLOUDY    39  36  87 NW13      29.49F WCI  32
MASON CITY     CLOUDY    35  32  88 NW17      29.58S WCI  25
CHARLES CITY   CLOUDY    37  36  93 NW15      29.55R WCI  28
OELWEIN        CLOUDY    39  37  93 NW17      29.53R WCI  30
$$

...ELSEWHERE IN IOWA...


CITY           SKY/WX    TMP DP  RH WIND       PRES   REMARKS
DES MOINES     CLOUDY    40  34  79 NW17      29.59F WCI  31
IOWA CITY      LGT RAIN  43  39  86 NW17G23   29.52F
FORT DODGE     CLOUDY    34  27  75 NW9       29.62S WCI  26
MARSHALLTOWN   CLOUDY    38  35  89 NW20      29.56S WCI  28
CEDAR RAPIDS   LGT RAIN  40  40 100 NW14      29.51F FOG     WCI  32
$$

...NORTHERN ILLINOIS...


CITY           SKY/WX    TMP DP  RH WIND       PRES   REMARKS
CHICAGO-OHARE  LGT RAIN  61  59  93 S9        29.39F FOG
CHICAGO-MIDWAY LGT RAIN  62  59  90 SE12      29.41F
MOLINE         RAIN      44  41  89 NW13      29.46F FOG
ROCKFORD       LGT RAIN  51  48  89 N7        29.43F FOG
PEORIA         RAIN      50  50 100 N9        29.41F FOG
$$

NOTE: "FAIR" INDICATES FEW OR NO CLOUDS BELOW 12,000 FEET WITH NO
SIGNIFICANT WEATHER AND/OR OBSTRUCTIONS TO VISIBILITY. WIND
SPEEDS ARE IN MILES-PER-HOUR.




USA.gov is the U.S. government's official web portal to all federal, state and local government web resources and services.